User: anonymous   Login
Location: Lecco
(45.8566°N, 9.3977°E)
Time: 03:17:57
(UTC+02:00)
Language:

Hubble Space Telescope - Orbit

View from above orbital plane
View from above orbital plane
View from above satellite
View from above satellite

Ground track
Ground track

The orbit data is extracted from the following two-line orbital elements,

1 20580U 90037B   19141.12513890  .00000415  00000-0  14344-4 0  9999
2 20580  28.4704  40.8309 0002764 173.7393 315.7803 15.09226155396571
Epoch (UTC): 21 May 2019 03:00:12
Eccentricity: 0.0002764
inclination: 28.4704°
perigee height: 536 km
apogee height: 540 km
right ascension of ascending node: 40.8309°
argument of perigee: 173.7393°
revolutions per day: 15.09226155
mean anomaly at epoch: 315.7803°
orbit number at epoch: 39657

The dashed part of the orbit path shows where the satellite is in the earth's shadow,  

DLR